EW4278 Weather Reports


Display with metric or nautical units.
time (UTC)temp
F
wind
direction
speed
MPH
gust
MPH
rain 1hr
in
rain 24hr
in
rain mn
in
humidity
%
barometer
mb
20221208223038 54 128 8.0 14.0 0.00 0.00 0.00 58 1018.1
20221208221542 54 128 10.0 21.0 0.00 0.00 0.00 59 1018.2
20221208220037 54 128 9.0 17.0 0.00 0.00 0.00 60 1018.2
20221208214541 52 128 2.0 9.0 0.00 0.00 0.00 66 1018.3
20221208213031 52 128 0.0 0.0 0.00 0.00 0.00 68 1018.1
20221208211527 50 128 0.0 0.0 0.00 0.00 0.00 71 1018.1
20221208210035 49 128 0.0 0.0 0.00 0.00 0.00 72 1017.9
20221208204522 48 128 0.0 5.0 0.00 0.00 0.00 73 1017.7
20221208203021 48 128 2.0 7.0 0.00 0.00 0.00 73 1017.5
20221208201522 47 128 3.0 6.0 0.00 0.00 0.00 75 1017.5
20221208200020 45 128 0.0 0.0 0.00 0.00 0.00 79 1017.3
20221208194519 44 128 0.0 0.0 0.00 0.00 0.00 81 1017.3
20221208193018 43 128 4.0 6.0 0.00 0.00 0.00 82 1017.2
20221208191517 43 128 0.0 0.0 0.00 0.00 0.00 82 1017.1
20221208190017 44 128 0.0 0.0 0.00 0.00 0.00 81 1017.2
20221208184518 44 128 2.0 4.0 0.00 0.00 0.00 81 1017.1
20221208183014 44 128 0.0 0.0 0.00 0.00 0.00 81 1017.1
20221208181518 44 128 0.0 0.0 0.00 0.00 0.00 81 1017.1
20221208180013 44 128 0.0 0.0 0.00 0.00 0.00 81 1016.9
20221208174511 44 128 0.0 0.0 0.00 0.00 0.00 81 1016.8
20221208173010 44 128 0.0 0.0 0.00 0.00 0.00 80 1016.7
20221208171511 44 128 0.0 0.0 0.00 0.00 0.00 79 1016.7
20221208170010 43 128 0.0 0.0 0.00 0.00 0.00 81 1016.7
20221208164512 42 128 0.0 0.0 0.00 0.00 0.00 83 1016.8
20221208163007 42 128 0.0 0.0 0.00 0.00 0.00 81 1016.8
20221208161614 43 128 0.0 0.0 0.00 0.00 0.00 81 1017.0
20221208160059 44 128 0.0 0.0 0.00 0.00 0.00 79 1017.0
20221208154557 44 128 0.0 0.0 0.00 0.00 0.00 78 1017.0
20221208153052 45 128 0.0 0.0 0.00 0.00 0.00 77 1017.3
20221208151550 45 128 0.0 0.0 0.00 0.00 0.00 77 1017.4
20221208150047 45 128 0.0 0.0 0.00 0.00 0.00 76 1017.7
20221208144546 45 128 0.0 0.0 0.00 0.00 0.00 76 1017.8
20221208143043 45 128 0.0 0.0 0.00 0.00 0.00 75 1018.0
20221208141540 46 128 0.0 0.0 0.00 0.00 0.00 74 1018.1
20221208140035 47 128 0.0 0.0 0.00 0.00 0.00 72 1018.3
20221208134534 47 128 0.0 0.0 0.00 0.00 0.00 71 1018.6
20221208133033 48 128 0.0 0.0 0.00 0.00 0.00 70 1018.4
20221208131533 48 128 0.0 0.0 0.00 0.00 0.00 69 1018.4
20221208130025 48 128 2.0 6.0 0.00 0.00 0.00 68 1018.2
20221208124525 48 128 0.0 0.0 0.00 0.00 0.00 70 1018.0
20221208123024 49 128 0.0 0.0 0.00 0.00 0.00 69 1017.9
20221208121524 49 128 0.0 0.0 0.00 0.00 0.00 68 1017.8
20221208120029 50 128 0.0 0.0 0.00 0.00 0.00 69 1017.7
20221208114520 51 128 0.0 0.0 0.00 0.00 0.00 68 1017.5
20221208113019 51 128 0.0 0.0 0.00 0.00 0.00 65 1017.7
20221208111519 52 128 0.0 6.0 0.00 0.00 0.00 62 1017.6
20221208110016 52 128 0.0 0.0 0.00 0.00 0.00 60 1017.1
20221208104526 53 128 0.0 5.0 0.00 0.00 0.00 59 1016.9
20221208103114 53 128 2.0 6.0 0.00 0.00 0.00 57 1016.9
20221208101510 54 128 4.0 8.0 0.00 0.00 0.00 55 1016.7
20221208100011 54 128 5.0 14.0 0.00 0.00 0.00 53 1016.6
20221208094507 55 128 6.0 13.0 0.00 0.00 0.00 54 1016.5
20221208093005 56 128 6.0 11.0 0.00 0.00 0.00 51 1016.0
20221208091506 57 128 5.0 16.0 0.00 0.00 0.00 48 1016.0
20221208090005 58 128 8.0 18.0 0.00 0.00 0.00 48 1016.0
20221208084503 58 128 5.0 13.0 0.00 0.00 0.00 46 1015.8
20221208083100 58 128 5.0 10.0 0.00 0.00 0.00 48 1015.7
20221208081629 57 128 5.0 13.0 0.00 0.00 0.00 48 1015.7
20221208080058 58 128 4.0 12.0 0.00 0.00 0.00 48 1015.3
20221208074601 59 128 7.0 14.0 0.00 0.00 0.00 45 1015.1
20221208073101 60 128 7.0 12.0 0.00 0.00 0.00 43 1014.6
20221208071556 60 128 8.0 19.0 0.00 0.00 0.00 43 1014.7
20221208070056 59 128 8.0 13.0 0.00 0.00 0.00 45 1014.6
20221208064559 59 128 4.0 17.0 0.00 0.00 0.00 46 1014.5
20221208063054 60 128 4.0 17.0 0.00 0.00 0.00 45 1014.6
20221208061556 60 128 9.0 18.0 0.00 0.00 0.00 43 1014.5
20221208060104 61 128 6.0 19.0 0.00 0.00 0.00 44 1014.5
20221208054552 62 128 12.0 20.0 0.00 0.00 0.00 41 1014.4
20221208053057 62 128 6.0 20.0 0.00 0.00 0.00 42 1014.4
20221208051601 60 128 5.0 13.0 0.00 0.00 0.00 45 1014.5
20221208050052 60 128 8.0 13.0 0.00 0.00 0.00 43 1014.6
20221208044556 62 128 5.0 14.0 0.00 0.00 0.00 41 1014.5
20221208043049 62 128 4.0 11.0 0.00 0.00 0.00 42 1014.5
20221208041548 62 128 7.0 15.0 0.00 0.00 0.00 41 1014.7
20221208040047 60 128 6.0 15.0 0.00 0.00 0.00 45 1014.9
20221208034546 60 128 7.0 15.0 0.00 0.00 0.00 44 1014.9
20221208033046 61 128 11.0 18.0 0.00 0.00 0.00 45 1014.9
20221208031546 61 128 12.0 18.0 0.00 0.00 0.00 43 1014.8
20221208030041 60 128 8.0 20.0 0.00 0.00 0.00 44 1014.7
20221208024549 61 128 5.0 22.0 0.00 0.00 0.00 42 1014.6
20221208023041 60 128 9.0 19.0 0.00 0.00 0.00 44 1014.9
20221208021602 60 128 8.0 15.0 0.00 0.00 0.00 44 1015.0
20221208020037 60 128 6.0 15.0 0.00 0.00 0.00 46 1014.9
20221208014535 58 128 6.0 17.0 0.00 0.00 0.00 48 1015.2
20221208013043 58 128 8.0 14.0 0.00 0.00 0.00 49 1015.2
20221208011538 59 128 6.0 20.0 0.00 0.00 0.00 46 1015.2
20221208010031 58 128 8.0 15.0 0.00 0.00 0.00 48 1015.4
20221208004528 56 128 7.0 16.0 0.00 0.00 0.00 53 1015.5
20221208003029 56 128 4.0 17.0 0.00 0.00 0.00 53 1015.5
20221208001531 55 128 11.0 17.0 0.00 0.00 0.00 52 1015.4
20221208000026 55 128 10.0 18.0 0.00 0.00 0.00 51 1015.4
20221207234522 56 128 7.0 16.0 0.00 0.00 0.00 52 1015.2
20221207233019 54 128 6.0 17.0 0.00 0.00 0.00 55 1015.1
20221207231516 54 128 6.0 15.0 0.00 0.00 0.00 55 1015.0
20221207230014 53 128 10.0 19.0 0.00 0.00 0.00 55 1015.0
20221207224511 52 128 5.0 20.0 0.00 0.00 0.00 60 1015.0